Location: Marcé
(47.5801°N, 0.3280°W)
Time: 09:07:30
(UTC+01:00)

Vanguard 1 - Pass Details

Date: 30 November 2021
Orbit: 652 x 3830 km, 34.2° (Epoch: 16 January)

Event Time Altitude Azimuth Distance (km) Brightness Sun altitude
Exits shadow 02:57:46 46° 140° (SE) 4,054 12.9 -53.5°
Drops below altitude 10° 03:09:59 10° 99° (E) 5,295 14.1 -51.8°
Sets 03:13:28 0° 94° (E) 5,947 14.5 -51.3°
